Wind_Speed
26 21 23 30 34 34 33 31 33 35 33 30 30 30 27 22 20 22 22 23 24 24 29 36 37 34 31 29 29 29 28 28 28 27 26 25 25 25 24 23 22 21
36 33 34 37 39 38 35 34 34 35 36 34 32 32 30 27 24 23 25 25 25 25 28 34 36 35 33 31 30 31 30 29 29 28 27 27 25 24 25 24 23 22
42 42 42 41 43 45 42 39 35 35 38 39 36 35 35 34 28 23 24 23 23 25 26 30 34 35 34 33 32 32 32 30 28 27 27 27 25 23 24 24 23 22
43 44 45 44 44 44 41 39 36 34 38 39 39 39 37 33 26 22 21 20 20 21 21 25 31 33 32 33 33 33 32 30 28 26 27 27 26 24 23 24 24 23
42 43 45 45 44 41 38 38 36 37 40 41 41 42 37 30 24 19 17 17 17 17 19 24 28 29 29 31 34 35 33 31 28 26 26 25 24 25 23 24 25 24
41 43 44 46 45 39 37 39 38 39 41 39 38 39 35 27 23 19 17 19 18 17 20 23 23 23 26 29 33 35 33 30 27 26 25 22 22 23 23 23 25 25
37 41 42 44 44 40 38 39 38 39 38 36 36 36 31 25 22 20 18 19 18 18 21 23 21 20 24 29 32 33 32 30 27 25 25 22 21 22 20 20 21 23
32 36 38 39 40 42 42 42 40 38 36 36 36 32 27 23 22 20 18 17 16 15 19 23 21 19 22 27 31 33 33 32 29 26 24 22 20 21 20 19 18 20
29 31 32 34 37 41 42 42 42 41 39 39 36 31 26 23 21 19 18 17 14 12 16 22 22 19 20 25 30 33 33 32 30 28 24 22 21 21 21 21 20 21
30 30 30 32 35 37 38 38 39 41 41 40 37 33 28 23 21 20 19 17 14 12 18 23 24 24 23 24 27 30 31 31 30 28 24 22 21 21 23 22 22 22
31 31 32 34 34 35 35 35 36 39 40 37 33 32 29 26 24 22 21 20 16 15 20 23 25 26 25 23 24 26 28 29 29 27 24 22 21 22 23 23 23 23
30 31 33 35 34 35 35 33 34 38 38 34 31 30 30 30 28 26 24 23 21 18 20 22 23 24 26 25 24 24 27 29 29 27 24 22 21 22 23 23 23 23
26 30 33 35 36 37 36 33 35 38 37 33 30 29 31 31 30 29 27 25 26 25 21 20 20 23 25 25 25 26 28 30 30 29 25 23 22 22 22 23 24 23
24 28 29 32 34 34 35 34 34 38 38 36 32 29 30 32 31 31 31 28 28 28 24 20 20 22 24 23 24 27 29 30 30 29 27 25 25 24 22 22 24 25
23 25 26 27 29 28 29 30 31 34 37 40 39 35 32 33 34 35 35 32 29 27 26 24 23 22 23 22 23 26 29 31 31 30 28 28 27 26 24 23 23 25
21 23 23 25 27 26 26 28 29 31 35 41 44 45 42 39 38 39 39 37 34 29 27 27 26 23 22 21 23 27 31 33 34 31 28 28 27 25 24 24 24 24
22 22 22 24 25 25 25 27 27 28 32 37 41 45 45 43 41 42 42 41 38 33 30 30 28 26 24 23 25 30 31 32 33 29 26 25 24 24 23 23 24 24
22 23 23 24 25 24 25 27 27 26 27 30 33 38 42 44 44 45 44 42 39 35 33 31 30 30 29 26 27 31 31 31 31 28 25 24 24 25 24 23 23 23
21 23 24 24 23 24 25 27 27 26 25 26 28 33 39 43 44 45 45 40 36 34 35 34 32 32 32 29 28 30 30 30 30 29 26 25 25 24 24 24 26 26
19 22 24 24 24 25 27 28 28 28 28 27 27 32 38 41 43 45 43 38 33 33 34 35 36 34 32 30 29 29 30 30 31 30 26 24 24 23 23 26 29 29
17 19 22 24 26 26 28 29 30 30 30 29 28 31 36 39 41 43 41 36 34 32 30 32 36 36 33 31 31 30 31 31 32 32 28 25 25 23 22 25 27 27
16 18 21 24 25 25 27 29 30 30 31 30 30 31 33 35 38 39 37 35 34 34 31 29 32 35 34 33 33 33 33 33 33 34 31 27 27 25 22 23 25 26
17 19 22 24 24 24 26 28 29 30 30 31 32 32 33 35 36 35 35 35 34 34 33 29 29 34 35 34 35 35 35 35 35 36 35 32 30 27 24 24 25 26
13 16 19 22 23 23 24 26 27 28 29 32 32 32 32 33 34 34 33 33 33 34 34 31 30 34 36 36 36 36 36 35 36 38 39 38 34 30 27 26 27 27
9 11 16 20 22 22 24 27 29 29 29 30 31 31 32 31 33 34 32 31 32 33 35 35 32 33 36 37 38 38 38 37 37 39 42 42 38 32 27 26 27 29
8 7 11 16 19 21 22 25 30 32 31 28 27 29 31 29 30 33 33 33 34 32 33 35 32 29 33 37 38 38 39 39 40 42 44 45 42 36 29 26 28 31
Wind_Direction
214 223 228 233 239 241 241 241 244 246 238 234 242 243 241 241 236 233 231 226 221 220 221 222 222 220 218 219 218 219 220 222 223 223 222 223 224 224 226 226 226 226
216 216 219 227 237 243 244 242 246 247 237 237 245 244 247 251 242 241 244 237 231 230 227 224 221 220 219 218 218 220 222 224 224 223 223 222 221 223 225 225 224 224
226 224 225 230 238 243 244 240 243 246 238 238 242 242 249 254 247 246 246 238 235 238 234 226 221 221 220 218 218 220 221 224 224 223 225 224 220 222 224 223 223 222
232 232 233 237 241 242 242 237 236 238 234 233 237 241 245 246 241 238 236 231 232 237 234 226 222 222 220 219 220 220 219 221 224 224 226 227 224 224 223 221 221 221
232 234 236 239 242 241 237 233 232 233 230 227 232 239 240 239 239 238 239 240 241 243 239 231 227 225 225 224 224 223 221 219 221 224 226 228 227 225 224 222 221 221
232 236 239 240 242 237 231 230 231 232 229 225 227 233 235 238 244 246 246 248 252 260 256 246 242 237 233 232 230 228 225 219 219 222 223 223 224 225 225 222 222 221
233 236 239 239 239 236 233 233 231 229 229 227 227 231 236 242 246 243 238 238 248 264 266 261 263 256 242 236 232 231 228 222 218 220 223 221 221 223 221 218 219 221
236 236 238 238 237 237 239 240 236 231 230 228 228 232 241 247 247 242 235 237 251 268 267 260 259 259 248 236 232 232 231 225 218 218 220 219 218 219 218 214 215 218
239 238 237 237 237 238 241 240 237 236 234 230 230 236 244 246 241 234 229 238 258 280 275 260 252 252 250 239 234 232 230 226 221 217 217 217 217 216 215 214 214 215
236 235 232 234 235 236 238 236 234 236 236 233 233 237 241 238 229 228 232 238 252 274 279 269 257 250 245 242 240 234 231 230 223 217 215 215 215 213 213 213 213 215
232 233 230 230 231 231 234 234 233 235 237 235 233 234 236 230 224 229 236 236 241 263 276 269 259 252 245 244 247 240 234 232 223 215 213 212 213 213 212 212 212 214
230 230 229 228 227 228 231 232 234 238 240 240 236 232 231 225 224 231 236 234 234 246 262 259 249 247 245 245 250 243 234 228 221 214 211 210 212 212 211 212 213 214
233 229 229 230 228 227 229 232 235 236 236 238 238 233 228 224 224 230 233 232 231 234 246 249 237 237 242 244 246 241 231 226 222 216 211 209 210 210 209 211 213 214
246 233 230 232 232 230 230 232 234 232 231 233 236 234 231 227 226 230 233 231 230 232 239 246 237 231 234 237 240 238 232 228 224 217 212 210 211 210 209 209 212 215
257 240 230 229 231 231 231 233 233 228 225 228 235 240 239 232 226 233 237 230 228 231 236 244 242 231 227 234 241 239 233 229 225 216 212 213 213 212 210 209 212 216
259 242 231 227 227 224 224 230 231 226 220 222 229 236 240 235 230 236 239 229 226 231 234 240 242 229 222 230 239 237 230 226 222 216 213 212 210 209 208 209 211 214
253 245 231 224 224 221 221 227 229 224 218 217 220 225 229 228 228 235 236 228 226 230 230 234 235 226 219 221 226 229 226 223 223 220 214 209 207 210 212 211 211 213
248 246 233 222 220 220 221 225 225 221 216 214 215 218 221 222 225 230 230 225 225 228 228 230 231 225 221 217 217 222 222 222 223 221 216 214 213 214 215 213 214 215
243 242 236 227 221 220 221 222 221 219 217 214 214 216 218 221 225 227 224 221 224 227 226 229 231 227 221 215 214 218 218 217 220 219 217 217 216 213 211 212 218 221
240 236 234 231 224 219 219 220 219 217 216 216 215 217 220 223 226 226 220 217 221 225 224 226 229 227 220 212 210 212 211 210 214 218 219 217 216 212 210 216 223 226
243 237 234 231 228 223 219 217 216 216 218 220 220 221 223 225 225 223 219 216 220 223 221 220 222 222 217 211 209 207 207 207 210 215 217 216 216 214 212 219 225 228
245 240 235 231 228 225 222 220 219 221 222 224 224 225 224 224 223 222 221 220 221 222 221 218 217 217 213 210 210 208 206 208 211 216 218 215 214 213 213 216 219 223
249 240 236 233 230 229 229 225 222 223 222 221 223 224 223 222 221 220 220 220 220 221 223 222 217 213 209 207 207 206 206 207 211 215 218 217 215 214 213 213 214 218
274 254 246 240 235 237 244 240 231 227 224 222 222 221 220 220 218 217 218 221 222 222 224 225 221 213 207 204 205 206 206 207 208 212 216 218 218 216 215 215 218 222
312 279 265 254 240 240 252 253 247 242 233 224 221 220 218 218 218 217 218 221 223 223 224 227 224 217 211 207 206 207 209 209 209 212 215 216 216 216 216 218 221 225
326 300 280 265 250 248 255 256 254 253 246 237 232 224 216 212 213 215 217 219 222 223 225 226 225 222 217 212 209 209 211 210 212 214 215 215 215 214 215 219 222 226
Height
1487 1489 1491 1493 1494 1495 1496 1499 1501 1503 1507 1509 1511 1514 1515 1516 1517 1518 1520 1522 1523 1524 1525 1527 1530 1532 1534 1537 1540 1542 1544 1546 1548 1549 1550 1552 1553 1554 1556 1558 1559 1560
1482 1484 1487 1490 1491 1491 1494 1497 1499 1501 1505 1507 1509 1511 1513 1514 1515 1515 1516 1518 1519 1520 1521 1524 1526 1529 1531 1533 1536 1538 1541 1543 1545 1546 1547 1548 1550 1551 1553 1555 1557 1558
1478 1480 1483 1485 1487 1489 1491 1495 1497 1499 1502 1504 1506 1508 1509 1511 1513 1513 1513 1515 1516 1517 1519 1521 1524 1526 1528 1530 1532 1535 1537 1539 1541 1543 1544 1545 1547 1548 1550 1552 1554 1556
1475 1477 1479 1481 1483 1486 1489 1492 1494 1496 1498 1501 1503 1504 1507 1509 1510 1511 1512 1513 1515 1516 1518 1520 1521 1523 1526 1528 1530 1532 1534 1536 1538 1540 1541 1542 1544 1545 1547 1549 1551 1553
1471 1473 1475 1477 1479 1483 1485 1488 1491 1493 1495 1498 1500 1501 1504 1506 1507 1509 1511 1513 1514 1516 1518 1518 1519 1522 1526 1528 1528 1529 1531 1533 1535 1536 1538 1539 1540 1542 1543 1545 1547 1549
1468 1470 1472 1474 1476 1479 1481 1484 1489 1491 1493 1495 1497 1499 1501 1503 1504 1507 1509 1509 1511 1514 1517 1519 1520 1522 1525 1528 1527 1527 1528 1530 1531 1533 1534 1536 1537 1538 1540 1542 1544 1546
1465 1467 1469 1471 1473 1475 1477 1480 1485 1488 1490 1492 1494 1496 1498 1500 1501 1504 1505 1506 1507 1510 1513 1516 1519 1520 1523 1526 1526 1525 1526 1527 1528 1529 1531 1532 1534 1535 1536 1538 1540 1542
1463 1464 1465 1468 1470 1471 1473 1476 1479 1482 1485 1488 1490 1493 1495 1496 1498 1500 1502 1504 1504 1505 1507 1510 1513 1515 1517 1521 1524 1524 1524 1524 1524 1526 1527 1529 1530 1532 1534 1535 1536 1539
1460 1461 1463 1465 1466 1467 1469 1472 1474 1476 1479 1483 1486 1489 1491 1492 1494 1496 1498 1500 1500 1501 1504 1507 1510 1511 1512 1515 1518 1520 1520 1520 1521 1522 1523 1525 1526 1529 1531 1532 1533 1535
1457 1458 1460 1461 1463 1465 1466 1468 1470 1472 1475 1478 1482 1486 1487 1488 1490 1491 1493 1494 1495 1497 1501 1504 1507 1508 1509 1509 1511 1515 1517 1517 1517 1518 1519 1521 1523 1525 1527 1528 1529 1531
1455 1456 1457 1458 1460 1462 1463 1464 1466 1468 1470 1474 1477 1481 1483 1484 1486 1487 1488 1490 1490 1493 1497 1500 1502 1505 1507 1506 1507 1510 1514 1515 1515 1515 1515 1517 1519 1521 1523 1525 1526 1528
1452 1453 1454 1455 1456 1458 1459 1460 1461 1463 1466 1469 1472 1476 1478 1479 1481 1484 1485 1486 1486 1488 1492 1496 1498 1501 1503 1505 1506 1507 1510 1513 1513 1512 1512 1513 1515 1517 1519 1520 1522 1524
1448 1449 1450 1451 1453 1454 1455 1457 1457 1458 1462 1465 1468 1471 1472 1475 1477 1480 1482 1483 1483 1484 1487 1492 1495 1497 1499 1502 1503 1505 1507 1510 1511 1508 1508 1509 1511 1512 1515 1516 1518 1520
1444 1445 1446 1448 1449 1450 1452 1453 1453 1454 1456 1460 1464 1466 1468 1471 1474 1476 1478 1479 1480 1480 1482 1486 1490 1492 1495 1498 1500 1502 1505 1507 1507 1505 1504 1505 1506 1508 1510 1512 1513 1515
1441 1442 1443 1444 1446 1447 1449 1449 1450 1450 1452 1455 1459 1462 1465 1468 1471 1474 1475 1475 1476 1476 1476 1479 1484 1487 1490 1493 1496 1499 1502 1503 1503 1501 1499 1500 1501 1503 1505 1507 1509 1511
1438 1438 1439 1440 1442 1443 1445 1446 1447 1448 1448 1449 1453 1458 1462 1465 1468 1470 1470 1471 1472 1472 1471 1473 1477 1482 1485 1488 1491 1494 1497 1499 1499 1497 1495 1495 1497 1499 1501 1503 1505 1507
1435 1435 1436 1437 1438 1440 1441 1443 1444 1445 1444 1445 1449 1453 1457 1461 1463 1464 1465 1467 1468 1467 1465 1467 1471 1475 1479 1483 1486 1489 1493 1495 1496 1494 1493 1492 1493 1495 1497 1499 1501 1502
1432 1432 1432 1434 1435 1436 1438 1440 1441 1442 1442 1443 1445 1448 1452 1455 1457 1459 1460 1462 1464 1463 1460 1461 1465 1469 1472 1476 1480 1483 1487 1490 1492 1492 1491 1490 1490 1491 1493 1495 1497 1499
1430 1430 1430 1431 1432 1433 1435 1437 1438 1440 1440 1441 1443 1445 1447 1450 1451 1453 1455 1457 1460 1459 1457 1457 1461 1464 1467 1470 1473 1476 1480 1484 1485 1486 1487 1486 1486 1487 1488 1490 1492 1495
1428 1428 1427 1428 1429 1431 1432 1434 1435 1437 1437 1438 1440 1441 1443 1445 1446 1448 1451 1453 1455 1456 1454 1454 1455 1458 1462 1465 1468 1471 1474 1477 1479 1481 1482 1482 1483 1483 1484 1485 1487 1489
1426 1425 1425 1426 1427 1428 1429 1430 1431 1432 1433 1434 1435 1436 1438 1440 1442 1444 1446 1448 1450 1452 1451 1450 1450 1453 1457 1460 1462 1465 1467 1470 1473 1476 1478 1478 1479 1480 1480 1481 1482 1485
1423 1423 1423 1423 1424 1425 1426 1427 1427 1428 1429 1430 1431 1432 1434 1436 1438 1440 1442 1444 1446 1447 1448 1447 1446 1448 1451 1455 1457 1460 1462 1464 1467 1471 1473 1473 1475 1476 1477 1477 1478 1480
1420 1420 1420 1420 1420 1421 1422 1423 1424 1424 1425 1426 1427 1428 1430 1431 1433 1436 1438 1440 1441 1442 1443 1443 1442 1443 1446 1449 1452 1455 1456 1459 1462 1466 1467 1468 1469 1471 1473 1474 1474 1475
1419 1418 1418 1418 1419 1419 1420 1420 1421 1422 1423 1424 1424 1424 1425 1427 1429 1431 1433 1435 1436 1437 1439 1439 1439 1440 1442 1444 1447 1450 1452 1454 1457 1460 1461 1462 1464 1466 1468 1469 1469 1470
1418 1417 1416 1416 1417 1418 1420 1420 1420 1420 1420 1420 1421 1421 1422 1423 1425 1427 1429 1431 1432 1433 1435 1436 1436 1437 1438 1440 1442 1445 1448 1451 1453 1454 1455 1456 1458 1461 1463 1465 1465 1466
1418 1417 1417 1416 1415 1416 1417 1418 1418 1418 1418 1418 1418 1418 1418 1419 1420 1422 1424 1426 1428 1429 1431 1432 1434 1435 1435 1436 1438 1441 1444 1447 1449 1449 1450 1451 1453 1455 1458 1460 1460 1461